Hourly Weather Russkoe Vasilkovo

Today, 16 June, Wednesday

Time Temperature Precipitation Wind Pressure Humidity
00:00 +15°C° 0.1 mm 1 mps 741 mmHg 87%
01:00 +15°C° 0.1 mm 1 mps 741 mmHg 89%
02:00 +14°C° 0 mm 1 mps 742 mmHg 94%
03:00 +15°C° 0 mm 2 mps 742 mmHg 92%
04:00 +15°C° 0 mm 2 mps 742 mmHg 89%
05:00 +15°C° 0 mm 2 mps 742 mmHg 87%
06:00 +16°C° 0 mm 3 mps 743 mmHg 73%
07:00 +18°C° 0 mm 3 mps 743 mmHg 58%
08:00 +19°C° 0 mm 3 mps 743 mmHg 45%
09:00 +20°C° 0 mm 4 mps 744 mmHg 41%
10:00 +20°C° 0 mm 4 mps 744 mmHg 37%
11:00 +21°C° 0 mm 4 mps 744 mmHg 33%
12:00 +22°C° 0 mm 4 mps 744 mmHg 33%
13:00 +22°C° 0 mm 4 mps 744 mmHg 32%
14:00 +22°C° 0 mm 4 mps 745 mmHg 31%
15:00 +22°C° 0 mm 4 mps 745 mmHg 33%
16:00 +22°C° 0 mm 4 mps 745 mmHg 36%
17:00 +21°C° 0 mm 3 mps 745 mmHg 39%
18:00 +20°C° 0 mm 3 mps 745 mmHg 46%
19:00 +18°C° 0 mm 2 mps 746 mmHg 53%
20:00 +16°C° 0 mm 2 mps 746 mmHg 61%
21:00 +14°C° 0 mm 2 mps 746 mmHg 62%
22:00 +13°C° 0 mm 2 mps 747 mmHg 63%
23:00 +12°C° 0 mm 2 mps 748 mmHg 64%

Tomorrow, 17 June, Thursday

Time Temperature Precipitation Wind Pressure Humidity
00:00 +10°C° 0 mm 2 mps 748 mmHg 66%
01:00 +11°C° 0 mm 1 mps 749 mmHg 69%
02:00 +10°C° 0 mm 1 mps 749 mmHg 71%
03:00 +11°C° 0 mm 1 mps 749 mmHg 69%
04:00 +12°C° 0 mm 1 mps 750 mmHg 67%
05:00 +13°C° 0 mm 1 mps 750 mmHg 65%
06:00 +15°C° 0 mm 2 mps 750 mmHg 58%
07:00 +17°C° 0 mm 2 mps 750 mmHg 52%
08:00 +19°C° 0 mm 2 mps 751 mmHg 46%
09:00 +20°C° 0 mm 3 mps 751 mmHg 43%
10:00 +22°C° 0 mm 3 mps 751 mmHg 40%
11:00 +23°C° 0 mm 4 mps 751 mmHg 37%
12:00 +23°C° 0 mm 4 mps 751 mmHg 36%
13:00 +25°C° 0 mm 4 mps 751 mmHg 35%
14:00 +26°C° 0 mm 4 mps 751 mmHg 34%
15:00 +25°C° 0 mm 4 mps 751 mmHg 37%
16:00 +25°C° 0 mm 3 mps 751 mmHg 40%
17:00 +25°C° 0 mm 3 mps 751 mmHg 42%
18:00 +23°C° 0 mm 2 mps 751 mmHg 50%
19:00 +20°C° 0 mm 2 mps 751 mmHg 58%
20:00 +18°C° 0 mm 1 mps 751 mmHg 66%
21:00 +16°C° 0 mm 1 mps 752 mmHg 67%
22:00 +15°C° 0 mm 1 mps 752 mmHg 68%
23:00 +14°C° 0 mm 1 mps 752 mmHg 69%

Day after tomorrow, 18 June, Friday

Time Temperature Precipitation Wind Pressure Humidity
00:00 +14°C° 0 mm 1 mps 752 mmHg 70%
01:00 +12°C° 0 mm 0 mps 753 mmHg 71%
02:00 +12°C° 0 mm 0 mps 753 mmHg 72%
03:00 +13°C° 0 mm 0 mps 753 mmHg 71%
04:00 +15°C° 0 mm 1 mps 753 mmHg 70%
05:00 +16°C° 0 mm 1 mps 753 mmHg 68%
06:00 +19°C° 0 mm 1 mps 753 mmHg 62%
07:00 +20°C° 0 mm 2 mps 753 mmHg 56%
08:00 +23°C° 0 mm 2 mps 753 mmHg 49%
09:00 +24°C° 0 mm 2 mps 753 mmHg 46%
10:00 +26°C° 0 mm 3 mps 753 mmHg 43%
11:00 +27°C° 0 mm 3 mps 752 mmHg 40%
12:00 +27°C° 0 mm 3 mps 752 mmHg 39%
13:00 +28°C° 0 mm 3 mps 752 mmHg 38%
14:00 +29°C° 0 mm 4 mps 751 mmHg 37%
15:00 +28°C° 0 mm 3 mps 751 mmHg 39%
16:00 +28°C° 0 mm 3 mps 751 mmHg 42%
17:00 +28°C° 0 mm 3 mps 750 mmHg 44%
18:00 +26°C° 0 mm 3 mps 750 mmHg 53%
19:00 +24°C° 0 mm 2 mps 750 mmHg 62%
20:00 +21°C° 0 mm 2 mps 750 mmHg 71%
21:00 +19°C° 0 mm 2 mps 751 mmHg 74%
22:00 +18°C° 0 mm 2 mps 751 mmHg 77%
23:00 +17°C° 0 mm 2 mps 751 mmHg 79%

19 June, Saturday

Time Temperature Precipitation Wind Pressure Humidity
00:00 +17°C° 0 mm 2 mps 751 mmHg 82%
01:00 +16°C° 0 mm 2 mps 751 mmHg 84%
02:00 +16°C° 0 mm 2 mps 751 mmHg 86%
03:00 +17°C° 0 mm 2 mps 751 mmHg 83%
04:00 +18°C° 0 mm 2 mps 751 mmHg 79%
05:00 +19°C° 0 mm 2 mps 751 mmHg 76%
06:00 +21°C° 0 mm 3 mps 751 mmHg 69%
07:00 +24°C° 0 mm 3 mps 751 mmHg 62%
08:00 +26°C° 0 mm 3 mps 751 mmHg 54%
09:00 +27°C° 0 mm 4 mps 751 mmHg 50%
10:00 +28°C° 0 mm 4 mps 751 mmHg 46%
11:00 +29°C° 0 mm 4 mps 751 mmHg 42%
12:00 +29°C° 0 mm 4 mps 751 mmHg 40%
13:00 +30°C° 0 mm 4 mps 751 mmHg 38%
14:00 +30°C° 0 mm 4 mps 750 mmHg 37%
15:00 +30°C° 0 mm 4 mps 750 mmHg 39%
16:00 +30°C° 0 mm 3 mps 750 mmHg 41%
17:00 +29°C° 0 mm 3 mps 750 mmHg 43%
18:00 +27°C° 0 mm 3 mps 750 mmHg 52%
19:00 +25°C° 0 mm 2 mps 750 mmHg 62%
20:00 +21°C° 0 mm 2 mps 750 mmHg 71%
21:00 +20°C° 0 mm 2 mps 750 mmHg 74%
22:00 +19°C° 0 mm 2 mps 750 mmHg 78%
23:00 +18°C° 0 mm 2 mps 750 mmHg 82%

20 June, Sunday

Time Temperature Precipitation Wind Pressure Humidity
00:00 +18°C° 0 mm 2 mps 750 mmHg 83%
01:00 +17°C° 0 mm 2 mps 750 mmHg 85%
02:00 +17°C° 0 mm 2 mps 750 mmHg 87%
03:00 +18°C° 0 mm 2 mps 750 mmHg 84%
04:00 +19°C° 0 mm 2 mps 750 mmHg 81%
05:00 +20°C° 0 mm 2 mps 750 mmHg 78%
06:00 +21°C° 0 mm 2 mps 750 mmHg 71%
07:00 +24°C° 0 mm 2 mps 750 mmHg 64%
08:00 +26°C° 0 mm 2 mps 750 mmHg 56%
09:00 +27°C° 0 mm 3 mps 750 mmHg 53%
10:00 +28°C° 0 mm 3 mps 750 mmHg 49%
11:00 +30°C° 0 mm 3 mps 750 mmHg 46%
12:00 +30°C° 0 mm 3 mps 749 mmHg 43%
13:00 +30°C° 0 mm 4 mps 749 mmHg 41%
14:00 +32°C° 0 mm 4 mps 748 mmHg 38%
15:00 +30°C° 0 mm 4 mps 748 mmHg 40%
16:00 +30°C° 0 mm 4 mps 748 mmHg 42%
17:00 +30°C° 0 mm 3 mps 748 mmHg 44%
18:00 +27°C° 0 mm 3 mps 748 mmHg 53%
19:00 +25°C° 0 mm 3 mps 748 mmHg 61%
20:00 +23°C° 0 mm 2 mps 747 mmHg 70%
21:00 +21°C° 0 mm 2 mps 747 mmHg 73%
22:00 +20°C° 0 mm 2 mps 747 mmHg 76%
23:00 +19°C° 0 mm 2 mps 747 mmHg 79%

21 June, Monday

Time Temperature Precipitation Wind Pressure Humidity
00:00 +19°C° 0 mm 2 mps 747 mmHg 82%
01:00 +18°C° 0 mm 2 mps 748 mmHg 85%
02:00 +18°C° 0 mm 2 mps 748 mmHg 88%
03:00 +19°C° 0 mm 2 mps 748 mmHg 84%
04:00 +20°C° 0 mm 2 mps 748 mmHg 81%
05:00 +21°C° 0 mm 2 mps 748 mmHg 77%
06:00 +24°C° 0 mm 2 mps 748 mmHg 70%
07:00 +26°C° 0 mm 3 mps 748 mmHg 63%
08:00 +28°C° 0 mm 3 mps 748 mmHg 56%
09:00 +29°C° 0 mm 3 mps 748 mmHg 51%
10:00 +30°C° 0 mm 3 mps 748 mmHg 46%
11:00 +31°C° 0 mm 3 mps 748 mmHg 41%
12:00 +31°C° 0 mm 3 mps 748 mmHg 44%
13:00 +30°C° 0 mm 3 mps 748 mmHg 46%
14:00 +30°C° 0 mm 2 mps 748 mmHg 49%
15:00 +30°C° 0 mm 2 mps 748 mmHg 50%
16:00 +29°C° 0 mm 2 mps 748 mmHg 51%
17:00 +29°C° 0 mm 1 mps 748 mmHg 52%
18:00 +28°C° 0 mm 1 mps 748 mmHg 57%
19:00 +26°C° 0 mm 1 mps 748 mmHg 62%
20:00 +23°C° 0 mm 0 mps 748 mmHg 67%
21:00 +22°C° 0 mm 0 mps 748 mmHg 68%
22:00 +24°C° 0 mm 1 mps 748 mmHg 68%
23:00 +23°C° 0 mm 1 mps 748 mmHg 68%
Show more